Terminal Aerodrome Forecast
Issued by NWS

Home | Current Version | Previous Version | Text Only | Print | Product List | Glossary On
Versions: 1 2 3 4 5 6 7 8 9 10 11 12 13 14 15 16 17 18 19 20 21 22 23 24 25 26 27 28 29 30 31 32 33 34 35 36 37 38 39 40 41 42 43 44 45 46 47 48 49 50
000
FTUS43 KDMX 201506 AAB
TAFOTM
TAF AMD
KOTM 201506Z 2015/2112 29009KT P6SM VCTS FEW040CB OVC120
      TEMPO 2015/2016 VRB15G25KT 3SM TSRA BR SCT040CB BKN090
     FM201600 18008KT P6SM FEW040 BKN120=

USA.gov is the U.S. government's official web portal to all federal, state and local government web resources and services.